Location: Newark
(55.2831°N, 38.7366°E)
Time: 02:13:08
(UTC+00:00)

UWE-3 - Visible Passes

Search period start: 17 September 2019 00:00
Search period end: 27 September 2019 00:00
Orbit: 584 x 684 km, 97.6° (Epoch: 16 September)

Date Brightness Start Highest point End Pass type
(mag) Time Alt. Az. Time Alt. Az. Time Alt. Az.
18 Sep ? 01:56:58 10° ENE 01:57:35 10° E 01:58:12 10° E visible
19 Sep ? 02:16:57 10° NE 02:19:34 16° E 02:22:10 10° SE visible
22 Sep ? 16:04:40 10° WSW 16:06:00 11° W 16:07:21 10° WNW visible
23 Sep ? 02:07:35 10° NE 02:09:42 14° E 02:11:49 10° ESE visible
24 Sep ? 02:28:29 10° NE 02:31:38 21° E 02:34:48 10° SE visible
26 Sep ? 15:54:04 10° WSW 15:56:08 13° W 15:58:12 10° NW visible
